Tracking 20040 objects as of 19-Nov-2019
Live streaming from Space Station
objects crossing your sky now

ARIANE 44LP DEB

Track ARIANE 44LP DEB now!


NORAD ID: 26794
Int'l Code: 1991-015L
Perigee: 665.4 km
Apogee: 28,351.3 km
Inclination: 7.3 °
Period: 500.4 minutes
Semi major axis: 20879 km
RCS: 0.5191 m2 (medium)
Launch date: March 2, 1991
Source: France (FR)
Launch site: FRENCH GUIANA (FRGUI)

Note: This is SATELLITE DEBRIS
aabbcc
Your satellite tracking list
Your tracking list is empty




NASA's NSSDC Master Catalog

Two Line Element Set (TLE):
1 26794U 91015L   19321.65455146 -.00000232 +00000-0 -30712-2 0  9990
2 26794 007.3272 146.8675 6629980 014.1589 215.3141 02.87758515058767
Source of the keplerian elements: AFSPC